Regional Weather Roundup
Issued by NWS Charleston, SC

Current Version | Previous Version | Graphics & Text | Print | Product List | Glossary On
Versions: 1 2 3 4 5 6 7 8 9 10 11 12 13 14 15 16 17 18 19 20 21 22 23 24 25 26 27 28 29 30 31 32 33 34 35 36 37 38 39 40 41 42 43 44 45 46 47 48 49 50
000 ASUS42 KCHS 292113 RWRCHS REGIONAL WEATHER ROUNDUP NATIONAL WEATHER SERVICE CHARLESTON SC 500 PM EDT THU SEP 29 2016 NOTE: "FAIR" INDICATES FEW OR NO CLOUDS BELOW 12,000 FEET WITH NO SIGNIFICANT WEATHER AND/OR OBSTRUCTIONS TO VISIBILITY. NOT ALL STATIONS ARE QUALITY CONTROLLED. USE DATA WITH CAUTION... ESPECIALLY DEWPOINT OBSERVATIONS. SCZ027-030-031-034>040-042>050-292200- ...SOUTHEAST SOUTH CAROLINA... CITY SKY/WX TMP DP RH WIND PRES REMARKS N CHARLESTON MOSUNNY 86 72 62 S10 29.92R HX 92 WATERFRONT PRK N/A 83 76 79 SW9 29.90F HX 91 MOUNT PLEASANT FAIR 86 73 66 S5 29.93R HX 93 JOHNS ISLAND FAIR 84 73 70 S9 29.93S HX 91 PINOPOLIS N/A 88 72 58 SW6 29.85S HX 94 MONCKS CORNER FAIR 86 64 48 S7 29.92R SUMMERVILLE FAIR 88 68 51 S5 29.93R HX 91 BEAUFORT MCAS SUNNY 89 68 49 VRB3 29.92S HX 93 BEAUFORT ARPT FAIR 86 72 62 S9 29.92S HX 92 HILTON HEAD IS MOSUNNY 86 73 66 S10 29.94S HX 93 WALTERBORO CLEAR 90 59 35 SW7 29.93R ALLENDALE FAIR 86 61 42 VRB6 29.91S ...SOUTHERN MIDLANDS AND PEE DEE... CITY SKY/WX TMP DP RH WIND PRES REMARKS GEORGETOWN TSTM 72 68 88 W6G22 29.96S KINGSTREE MOCLDY 81 70 69 E7 29.93R ORANGEBURG SUNNY 86 57 37 SW13 29.92S BARNWELL NOT AVBL AIKEN FAIR 86 52 30 S8 29.95S MANNING MOCLDY 84 68 58 S3 29.92R COLUMBIA MOSUNNY 89 52 28 SW10 29.90R SUMTER MOSUNNY 88 57 34 S9 29.90R FLORENCE MOSUNNY 79 70 74 SE10 29.95R MYRTLE BEACH TSTM 70 59 68 W16 30.01R N MYRTLE BEACH PTSUNNY 76 69 79 SW5 29.97R $$ GAZ063-065-086>088-099>101-113>116-118-119-134>141-150-292200- ...SOUTHEAST GEORGIA... CITY SKY/WX TMP DP RH WIND PRES REMARKS SAVANNAH ARPT PTSUNNY 89 63 41 SW10G17 29.92S HX 90 HUNTER AAF MOSUNNY 89 73 58 S6 29.90F HX 97 FORT STEWART MOSUNNY 89 66 45 S7 29.89F HX 92 STATESBORO SUNNY 89 67 48 CALM 29.92S HX 92 SYLVANIA NOT AVBL CLAXTON MOCLDY 87 69 53 S3 29.92S HX 91 ...CSRA...CENTRAL AND FAR SOUTHEAST GEORGIA... CITY SKY/WX TMP DP RH WIND PRES REMARKS THOMSON MOSUNNY 89 55 30 W8 29.95S AUGUSTA-BUSH MOSUNNY 87 54 32 S3 29.89S AUGUSTA-DANIEL MOSUNNY 90 47 22 S12G21 29.91S SWAINSBORO MOCLDY 88 57 35 SW7 29.92S VIDALIA MOSUNNY 90 68 48 SW12 29.92S HX 93 EASTMAN FAIR 92 27 10 SW5 29.94S HAZLEHURST FAIR 90 62 38 NE6 29.91S HX 90 ALMA MOSUNNY 90 65 43 SW9 29.92S HX 92 WAYCROSS PTSUNNY 93 71 49 W7 29.92S HX 99 JESUP FAIR 90 72 55 SW5 29.92F HX 96 BAXLEY PTSUNNY 90 72 55 S6 29.92S HX 96 BRUNSWICK SUNNY 88 73 62 SE9 29.94S HX 96 SAINT SIMONS SUNNY 84 70 62 S9 29.94R $$ SCZ027-028-034-036>038-045-046-048>050-GAZ119-141-292200- ...LAKE AND SUPPLEMENTAL COASTAL OBSERVATIONS... STATION/POSITION TIME TEMP WIND PRES WAVE SWELL AIR SEA DIR/SP/G HT/PER HT/PER/DIR (UTC) (F) (DEG/KT/KT) (MB) (FT/S) (FT/S/D) WINYAH BAY NOT AVBL LAKE MURRAY 2020 85 230/ 7/ 12 1011.9S ACE BASIN NERRS 1945 88 190/ 1 1013.0 FORT PULASKI 2048 85 82 140/ 8/ 13 1013.8F SAPELO ISLAND 2000 87 160/ 9 1014.0 $$ ANZ835-935-AMZ111-154-330-350-352-354-370-450-454-472-292200- ...C-MAN AND BUOY OBSERVATIONS... STATION/POSITION TIME TEMP WIND PRES WAVE SWELL AIR SEA DIR/SP/G HT/PER HT/PER/DIR (UTC) (F) (DEG/KT/KT) (MB) (FT/S) (FT/S/D) BUOY 41004 2050 81 82 200/ 14/ 16 1013.7R 4/ 5 2/130/11 BUOY 41008 2050 81 83 150/ 12/ 14 1014.0S 2/11 2/ 50/11 FOLLY BEACH CMAN 2000 80 210/ 14/ 16 1013.7F CAPERS NEARSHORE 2008 81 82 210/ 14/ 17 1013.2F FRIPP NEARSHORE 2008 82 83 190/ 10/ 12 1013.6F STATION/POSITION TIME TEMP WIND PRES WAVE SWELL AIR SEA DIR/SP/G HT/PER HT/PER/DIR (UTC) (F) (DEG/KT/KT) (MB) (FT/S) (FT/S/D) 5E ST. MARYS GA NOT AVBL FRYING PAN BUOY 2050 81 82 160/ 8/ 10 1015.3R 3/ 5 3/220/ 5 BUOY 41025 2050 79 79 30/ 2/ 4 1016.1F 3/ 7 3/ 80/ 7 CAPE LOOKOUT NC 2000 75 50/ 10/ 11 1015.8F BUOY 41002 2050 81 83 230/ 10/ 12 1016.7F 4/11 3/ 50/11 BUOY 41010 NOT AVBL ST AUGUSTINE FL 2100 82 84 200/ 7/ 9 1015.6S $$

USA.gov is the U.S. government's official web portal to all federal, state and local government web resources and services.